Surface/Precipitation History
11/22/2014 22:07  to  11/23/2014 22:07
Change End Date:
Date/Time
(MST)
Sf
Temp Chem Water Layer Surface Precipitation
Sf Sub Frz Factor Pct Depth IcePct Cond Salin Type Intens Accum Rate
11/23/2014 22:03 Ice Warning 27.1F - 32F 95 1% - 98% 1 mhos 179 Yes - - -
11/23/2014 21:53 Ice Warning 27.1F - 32F 95 1% - 98% 1 mhos 199 Yes - - -
11/23/2014 21:43 Ice Warning 27.1F - 32F 95 1% - 97% 1 mhos 225 Yes - - -
11/23/2014 21:41 Ice Warning 27.1F - 32F 95 1% - 97% 2 mhos 293 Yes - - -
11/23/2014 21:33 Ice Warning 27.1F - 32F 95 1% - 97% 2 mhos 303 Yes - - -
11/23/2014 21:31 Ice Warning 27.1F - 32F 95 1% - 97% 2 mhos 307 Yes - - -
11/23/2014 21:23 Ice Warning 27.0F - 32F 95 2% - 95% 3 mhos 458 Yes - - -
11/23/2014 21:13 Ice Warning 26.8F - 31F 95 4% - 87% 8 mhos 1233 None None - -
11/23/2014 21:11 Ice Warning 26.8F - 31F 95 4% - 87% 8 mhos 1221 Yes - - -
11/23/2014 21:02 Ice Warning 26.4F - 31F 95 4% - 87% 8 mhos 1296 None None - -
11/23/2014 21:01 Ice Warning 26.2F - 31F 95 4% - 87% 8 mhos 1298 None None - -
11/23/2014 20:52 Ice Warning 26.2F - 31F 95 4% - 87% 8 mhos 1250 None None - -
11/23/2014 20:42 Ice Warning 26.1F - 31F 95 4% - 88% 7 mhos 1179 None None - -
11/23/2014 20:32 Ice Warning 26.1F - 31F 95 3% - 90% 6 mhos 1014 None None - -
11/23/2014 20:31 Ice Warning 26.1F - 31F 95 3% - 90% 6 mhos 1003 None None - -
Date/Time
(MST)
Sf
Temp Chem Water Layer Surface Precipitation
Sf Sub Frz Factor Pct Depth IcePct Cond Salin Type Intens Accum Rate
11/23/2014 20:22 Ice Warning 26.2F - 31F 95 2% - 94% 4 mhos 591 None None - -
11/23/2014 20:12 Ice Warning 26.6F - 32F 95 2% - 95% 3 mhos 479 None None - -
11/23/2014 20:02 Ice Warning 27.1F - 32F 95 1% - 95% 3 mhos 441 None None - -
11/23/2014 20:01 Ice Warning 27.1F - 32F 95 1% - 95% 3 mhos 395 None None - -
11/23/2014 19:52 Ice Warning 27.1F - 32F 95 1% - 97% 2 mhos 303 None None - -
11/23/2014 19:45 Ice Warning 27.1F - 32F 95 1% - 96% 3 mhos 370 None None - -
11/23/2014 19:42 Ice Warning 27.3F - 32F 95 1% - 96% 3 mhos 367 Yes - - -
11/23/2014 19:32 Ice Watch 27.3F - - 95 - - - 2 mhos 318 None None - -
11/23/2014 19:31 Ice Watch 27.5F - - 95 - - - 2 mhos 258 None None - -
11/23/2014 19:22 Ice Watch 28.2F - - 95 - - - 1 mhos 186 None None - -
11/23/2014 19:12 Ice Watch 27.9F - - 45 - - - 0 mhos 3 None None - -
11/23/2014 19:02 Ice Watch 27.7F - - 5 - - - 0 mhos 1 None None - -
11/23/2014 19:01 Ice Watch 27.5F - - 5 - - - 0 mhos 1 None None - -
11/23/2014 18:52 Ice Watch 27.3F - - 5 - - - 0 mhos 0 None None - -
11/23/2014 18:42 Ice Watch 27.0F - - 5 - - - 0 mhos 0 None None - -
Date/Time
(MST)
Sf
Temp Chem Water Layer Surface Precipitation
Sf Sub Frz Factor Pct Depth IcePct Cond Salin Type Intens Accum Rate
11/23/2014 18:32 Ice Watch 27.0F - - 5 - - - 0 mhos 0 None None - -
11/23/2014 18:31 Ice Watch 27.0F - - 5 - - - 0 mhos 0 None None - -
11/23/2014 18:22 Ice Watch 26.8F - - 5 - - - 0 mhos 0 None None - -
11/23/2014 18:12 Dry 27.1F - - - - - - 0 mhos 0 None None - -
11/23/2014 18:02 Ice Watch 27.5F - - 5 - - - 0 mhos 0 None None - -
11/23/2014 18:01 Ice Watch 27.7F - - 5 - - - 0 mhos 0 None None - -
11/23/2014 17:52 Ice Watch 28.2F - - 5 - - - 0 mhos 0 None None - -
11/23/2014 17:42 Ice Watch 28.4F - - 5 - - - 0 mhos 0 None None - -
11/23/2014 17:38 Ice Watch 28.6F - - 5 - - - 0 mhos 0 None None - -
11/23/2014 17:32 Ice Watch 28.6F - - 5 - - - 0 mhos 0 None None - -
11/23/2014 17:22 Dry 29.3F - - - - - - 0 mhos 0 None None - -
11/23/2014 17:12 Dry 29.3F - - - - - - 0 mhos 0 None None - -
11/23/2014 17:11 Dry 29.3F - - - - - - 0 mhos 0 None None - -
11/23/2014 17:02 Dry 29.7F - - - - - - 0 mhos 0 None None - -
11/23/2014 17:01 Dry 29.7F - - - - - - 0 mhos 0 None None - -
Date/Time
(MST)
Sf
Temp Chem Water Layer Surface Precipitation
Sf Sub Frz Factor Pct Depth IcePct Cond Salin Type Intens Accum Rate
11/23/2014 16:52 Dry 30.2F - - - - - - 0 mhos 0 None None - -
11/23/2014 16:42 Dry 30.7F - - - - - - 0 mhos 0 None None - -
11/23/2014 16:41 Dry 30.7F - - - - - - 0 mhos 0 None None - -
11/23/2014 16:32 Dry 31.1F - - - - - - 0 mhos 0 None None - -
11/23/2014 16:31 Dry 31.1F - - - - - - 0 mhos 0 None None - -
11/23/2014 16:22 Dry 32.0F - - - - - - 0 mhos 0 None None - -
11/23/2014 16:12 Dry 31.6F - - - - - - 0 mhos 0 None None - -
11/23/2014 16:11 Dry 31.6F - - - - - - 0 mhos 0 None None - -
11/23/2014 16:01 Dry 32.2F - - - - - - 0 mhos 0 None None - -
11/23/2014 16:01 Dry 32.2F - - - - - - 0 mhos 0 None None - -
11/23/2014 15:51 Dry 32.5F - - - - - - 0 mhos 0 None None - -
11/23/2014 15:42 Dry 32.7F - - - - - - 0 mhos 0 None None - -
11/23/2014 15:41 Dry 32.7F - - - - - - 0 mhos 0 None None - -
11/23/2014 15:31 Dry 33.1F - - - - - - 0 mhos 0 None None - -
11/23/2014 15:31 Dry 33.1F - - - - - - 0 mhos 0 None None - -
Date/Time
(MST)
Sf
Temp Chem Water Layer Surface Precipitation
Sf Sub Frz Factor Pct Depth IcePct Cond Salin Type Intens Accum Rate
11/23/2014 15:21 Dry 33.6F - - - - - - 0 mhos 0 None None - -
11/23/2014 15:12 Dry 34.0F - - - - - - 0 mhos 1 None None - -
11/23/2014 15:11 Dry 34.2F - - - - - - 0 mhos 1 None None - -
11/23/2014 15:01 Dry 35.2F - - - - - - 0 mhos 2 None None - -
11/23/2014 15:01 Dry 35.2F - - - - - - 0 mhos 2 None None - -
11/23/2014 14:51 Dry 36.7F - - - - - - 0 mhos 9 None None - -
11/23/2014 14:41 Dry 34.3F - - - - - - 0 mhos 18 None None - -
11/23/2014 14:31 Dry 32.7F - - - - - - 0 mhos 39 None None - -
11/23/2014 14:31 Dry 32.7F - - - - - - 0 mhos 39 None None - -
11/23/2014 14:21 Dry 32.0F - - - - - - 1 mhos 72 None None - -
11/23/2014 14:11 Dry 31.6F - - - - - - 1 mhos 118 None None - -
11/23/2014 14:01 Dry 31.3F - - - - - - 2 mhos 172 None None - -
11/23/2014 14:01 Dry 31.3F - - - - - - 2 mhos 172 None None - -
11/23/2014 13:51 Dry 31.6F - - - - - - 2 mhos 220 None None - -
11/23/2014 13:41 Dry 31.6F - - - - - - 3 mhos 291 None None - -
Date/Time
(MST)
Sf
Temp Chem Water Layer Surface Precipitation
Sf Sub Frz Factor Pct Depth IcePct Cond Salin Type Intens Accum Rate
11/23/2014 13:31 Dry 31.6F - - - - - - 3 mhos 340 None None - -
11/23/2014 13:31 Dry 31.6F - - - - - - 3 mhos 340 None None - -
11/23/2014 13:21 Dry 31.6F - - - - - - 4 mhos 421 None None - -
11/23/2014 13:11 Dry 32.0F - - - - - - 5 mhos 475 None None - -
11/23/2014 13:01 Dry 31.8F - - - - - - 5 mhos 523 None None - -
11/23/2014 13:01 Dry 31.6F - - - - - - 5 mhos 525 None None - -
11/23/2014 12:51 Dry 32.0F - - - - - - 6 mhos 569 None None - -
11/23/2014 12:41 Dry 32.2F - - - - - - 6 mhos 630 None None - -
11/23/2014 12:41 Dry 32.2F - - - - - - 6 mhos 633 None None - -
11/23/2014 12:31 Chemically Wet 30.7F - 31F 50 2% - 74% 7 mhos 722 None None - -
11/23/2014 12:31 Chemically Wet 30.7F - 31F 50 2% - 74% 7 mhos 722 None None - -
11/23/2014 12:21 Ice Warning 26.1F - 31F 95 4% - 89% 7 mhos 1106 None None - -
11/23/2014 12:12 Ice Warning 25.0F - 31F 95 4% - 89% 7 mhos 1276 None None - -
11/23/2014 12:11 Ice Warning 24.8F - 31F 95 4% - 89% 7 mhos 1301 None None - -
11/23/2014 12:01 Ice Warning 24.4F - 31F 95 5% - 89% 8 mhos 1402 None None - -
Date/Time
(MST)
Sf
Temp Chem Water Layer Surface Precipitation
Sf Sub Frz Factor Pct Depth IcePct Cond Salin Type Intens Accum Rate
11/23/2014 12:01 Ice Warning 24.4F - 31F 95 5% - 89% 8 mhos 1402 None None - -
11/23/2014 11:51 Ice Warning 24.1F - 31F 95 5% - 88% 8 mhos 1506 None None - -
11/23/2014 11:41 Ice Warning 23.7F - 31F 95 4% - 90% 7 mhos 1299 None None - -
11/23/2014 11:41 Ice Warning 23.9F - 31F 95 4% - 90% 7 mhos 1282 None None - -
11/23/2014 11:31 Ice Warning 24.1F - 31F 95 4% - 90% 7 mhos 1252 None None - -
11/23/2014 11:31 Ice Warning 24.1F - 31F 95 4% - 90% 7 mhos 1252 None None - -
11/23/2014 11:21 Ice Warning 23.9F - 31F 95 4% - 91% 6 mhos 1160 None None - -
11/23/2014 11:11 Ice Warning 23.9F - 31F 95 4% - 91% 6 mhos 1136 None None - -
11/23/2014 11:01 Ice Warning 24.1F - 31F 95 4% - 90% 7 mhos 1325 None None - -
11/23/2014 11:01 Ice Warning 24.1F - 31F 95 4% - 90% 7 mhos 1314 None None - -
11/23/2014 10:51 Ice Warning 24.1F - 31F 95 4% - 90% 7 mhos 1311 None None - -
11/23/2014 10:41 Ice Warning 23.5F - 31F 95 5% - 89% 7 mhos 1409 None None - -
11/23/2014 10:41 Ice Warning 23.5F - 31F 95 5% - 89% 7 mhos 1413 None None - -
11/23/2014 10:31 Ice Warning 23.4F - 31F 95 5% - 89% 8 mhos 1507 None None - -
11/23/2014 10:30 Ice Warning 23.2F - 31F 95 5% - 89% 8 mhos 1534 None None - -
Date/Time
(MST)
Sf
Temp Chem Water Layer Surface Precipitation
Sf Sub Frz Factor Pct Depth IcePct Cond Salin Type Intens Accum Rate
11/23/2014 10:20 Ice Warning 23.0F - 31F 95 5% - 88% 8 mhos 1644 None None - -
11/23/2014 10:10 Ice Warning 22.6F - 30F 95 6% - 88% 9 mhos 1775 None None - -
11/23/2014 10:01 Ice Warning 22.6F - 30F 95 6% - 87% 9 mhos 1805 None None - -
11/23/2014 10:00 Ice Warning 22.6F - 30F 95 6% - 87% 9 mhos 1814 None None - -
11/23/2014 09:50 Ice Warning 22.6F - 30F 95 7% - 86% 10 mhos 1975 None None - -
11/23/2014 09:40 Chemically Wet 22.8F - 30F 95 8% - 82% 12 mhos 2469 None None - -
11/23/2014 09:31 Chemically Wet 23.0F - 29F 95 10% - 79% 16 mhos 2976 None None - -
11/23/2014 09:30 Chemically Wet 22.8F - 29F 95 10% - 79% 15 mhos 2978 None None - -
11/23/2014 09:20 Chemically Wet 22.5F - 29F 95 10% - 78% 16 mhos 3145 None None - -
11/23/2014 09:11 Chemically Wet 22.3F - 28F 95 12% - 76% 18 mhos 3486 None None - -
11/23/2014 09:10 Chemically Wet 22.5F - 29F 95 11% - 77% 17 mhos 3409 None None - -
11/23/2014 09:01 Chemically Wet 22.1F - 28F 95 12% - 76% 18 mhos 3512 None None - -
11/23/2014 09:00 Chemically Wet 21.6F - 28F 95 13% - 76% 18 mhos 3779 None None - -
11/23/2014 08:50 Chemically Wet 21.6F - 28F 95 12% - 76% 18 mhos 3703 None None - -
11/23/2014 08:41 Chemically Wet 21.4F - 27F 95 15% - 72% 21 mhos 4361 None None - -
Date/Time
(MST)
Sf
Temp Chem Water Layer Surface Precipitation
Sf Sub Frz Factor Pct Depth IcePct Cond Salin Type Intens Accum Rate
11/23/2014 08:40 Chemically Wet 21.4F - 27F 95 14% - 73% 21 mhos 4289 None None - -
11/23/2014 08:31 Chemically Wet 21.4F - 28F 95 13% - 75% 19 mhos 3928 None None - -
11/23/2014 08:30 Chemically Wet 21.4F - 28F 95 13% - 75% 19 mhos 3904 None None - -
11/23/2014 08:20 Chemically Wet 21.4F - 28F 95 12% - 77% 17 mhos 3629 None None - -
11/23/2014 08:10 Ice Warning 21.4F - 31F 95 4% - 92% 5 mhos 1272 None None - -
11/23/2014 08:01 Ice Warning 21.0F - 31F 95 3% - 94% 4 mhos 892 None None - -
11/23/2014 08:00 Ice Warning 21.0F - 31F 95 3% - 95% 4 mhos 874 None None - -
11/23/2014 07:50 Ice Warning 21.2F - 31F 95 2% - 96% 3 mhos 644 None None - -
11/23/2014 07:40 Ice Warning 21.2F - 32F 95 1% - 97% 2 mhos 414 None None - -
11/23/2014 07:31 Ice Warning 21.0F - 32F 95 1% - 97% 2 mhos 407 None None - -
11/23/2014 07:30 Ice Warning 21.0F - 32F 95 1% - 97% 2 mhos 403 None None - -
11/23/2014 07:20 Ice Warning 21.2F - 32F 95 1% - 98% 1 mhos 318 None None - -
11/23/2014 07:10 Ice Warning 21.6F - 32F 95 1% - 99% 1 mhos 217 None None - -
11/23/2014 07:10 Ice Warning 21.6F - 32F 95 1% - 99% 1 mhos 217 None None - -
11/23/2014 07:00 Ice Warning 21.7F - 32F 95 0% - 100% 0 mhos 66 None None - -
Date/Time
(MST)
Sf
Temp Chem Water Layer Surface Precipitation
Sf Sub Frz Factor Pct Depth IcePct Cond Salin Type Intens Accum Rate
11/23/2014 06:50 Ice Warning 21.9F - 32F 95 0% - 100% 0 mhos 51 None None - -
11/23/2014 06:40 Ice Warning 21.7F - 32F 90 0% - 100% 0 mhos 37 None None - -
11/23/2014 06:31 Ice Warning 21.4F - 32F 85 0% - 100% 0 mhos 27 Yes - - -
11/23/2014 06:30 Ice Warning 21.4F - 32F 85 0% - 100% 0 mhos 27 None None - -
11/23/2014 06:20 Ice Warning 21.6F - 32F 70 0% - 100% 0 mhos 22 None None - -
11/23/2014 06:10 Ice Warning 21.2F - 32F 60 0% - 100% 0 mhos 20 None None - -
11/23/2014 06:01 Ice Warning 21.6F - 32F 55 0% - 100% 0 mhos 20 None None - -
11/23/2014 06:00 Ice Warning 21.6F - 32F 55 0% - 100% 0 mhos 20 None None - -
11/23/2014 05:50 Ice Warning 21.6F - 32F 55 0% - 100% 0 mhos 19 None None - -
11/23/2014 05:40 Ice Warning 22.1F - 32F 50 0% - 100% 0 mhos 17 None None - -
11/23/2014 05:31 Ice Warning 22.3F - 32F 40 0% - 100% 0 mhos 13 None None - -
11/23/2014 05:30 Ice Warning 22.5F - 32F 40 0% - 100% 0 mhos 13 None None - -
11/23/2014 05:20 Ice Warning 22.8F - 32F 30 0% - 100% 0 mhos 11 None None - -
11/23/2014 05:10 Ice Warning 22.8F - 32F 20 0% - 100% 0 mhos 10 None None - -
11/23/2014 05:01 Ice Warning 22.6F - 32F 20 0% - 100% 0 mhos 9 None None - -
Date/Time
(MST)
Sf
Temp Chem Water Layer Surface Precipitation
Sf Sub Frz Factor Pct Depth IcePct Cond Salin Type Intens Accum Rate
11/23/2014 05:00 Ice Warning 22.6F - 32F 20 0% - 100% 0 mhos 9 None None - -
11/23/2014 04:50 Ice Warning 22.5F - 32F 15 0% - 100% 0 mhos 9 None None - -
11/23/2014 04:40 Ice Warning 22.6F - 32F 15 0% - 100% 0 mhos 8 None None - -
11/23/2014 04:31 Ice Warning 22.6F - 32F 15 0% - 100% 0 mhos 7 None None - -
11/23/2014 04:29 Ice Warning 22.6F - 32F 15 0% - 100% 0 mhos 7 None None - -
11/23/2014 04:19 Ice Warning 23.2F - 32F 10 0% - 100% 0 mhos 5 None None - -
11/23/2014 04:09 Ice Warning 23.5F - 32F 10 0% - 100% 0 mhos 5 Yes - - -
11/23/2014 04:01 Ice Warning 23.5F - 32F 10 0% - 100% 0 mhos 5 None None - -
11/23/2014 03:59 Ice Warning 23.5F - 32F 10 0% - 100% 0 mhos 5 None None - -
11/23/2014 03:49 Ice Warning 23.7F - 32F 15 0% - 100% 0 mhos 5 None None - -
11/23/2014 03:39 Ice Warning 24.6F - 32F 15 0% - 100% 0 mhos 5 Yes - - -
11/23/2014 03:31 Ice Warning 25.9F - 32F 15 0% - 100% 0 mhos 5 Yes - - -
11/23/2014 03:29 Ice Warning 25.9F - 32F 15 0% - 100% 0 mhos 5 Yes - - -
11/23/2014 03:19 Ice Warning 25.9F - 32F 15 0% - 100% 0 mhos 5 Yes - - -
11/23/2014 03:10 Ice Warning 25.0F - 32F 15 0% - 100% 0 mhos 5 None None - -
Date/Time
(MST)
Sf
Temp Chem Water Layer Surface Precipitation
Sf Sub Frz Factor Pct Depth IcePct Cond Salin Type Intens Accum Rate
11/23/2014 03:09 Ice Warning 25.2F - 32F 15 0% - 100% 0 mhos 5 None None - -
11/23/2014 02:59 Ice Warning 25.9F - 32F 15 0% - 100% 0 mhos 5 Yes - - -
11/23/2014 02:49 Ice Warning 25.9F - 32F 10 0% - 100% 0 mhos 5 None None - -
11/23/2014 02:39 Ice Warning 25.5F - 32F 15 0% - 100% 0 mhos 5 Yes - - -
11/23/2014 02:31 Ice Warning 25.2F - 32F 15 0% - 100% 0 mhos 5 None None - -
11/23/2014 02:29 Ice Warning 25.2F - 32F 15 0% - 100% 0 mhos 5 None None - -
11/23/2014 02:19 Ice Warning 25.5F - 32F 15 0% - 100% 0 mhos 5 Yes - - -
11/23/2014 02:09 Ice Warning 25.7F - 32F 15 0% - 100% 0 mhos 5 Yes - - -
11/23/2014 02:09 Ice Warning 25.5F - 32F 15 0% - 100% 0 mhos 4 None None - -
11/23/2014 01:59 Ice Warning 24.8F - 32F 15 0% - 100% 0 mhos 4 None None - -
11/23/2014 01:49 Ice Warning 25.7F - 32F 15 0% - 100% 0 mhos 4 Yes - - -
11/23/2014 01:39 Ice Warning 25.2F - 32F 15 0% - 100% 0 mhos 3 Yes - - -
11/23/2014 01:31 Ice Warning 23.9F - 32F 10 0% - 100% 0 mhos 3 None None - -
11/23/2014 01:29 Ice Warning 23.7F - 32F 15 0% - 100% 0 mhos 3 None None - -
11/23/2014 01:19 Ice Warning 23.5F - 32F 10 0% - 100% 0 mhos 3 None None - -
Date/Time
(MST)
Sf
Temp Chem Water Layer Surface Precipitation
Sf Sub Frz Factor Pct Depth IcePct Cond Salin Type Intens Accum Rate
11/23/2014 01:09 Ice Warning 24.1F - 32F 10 0% - 100% 0 mhos 3 None None - -
11/23/2014 01:01 Ice Warning 25.3F - 32F 5 0% - 100% 0 mhos 2 Yes - - -
11/23/2014 00:59 Ice Warning 25.5F - 32F 5 0% - 100% 0 mhos 2 None None - -
11/23/2014 00:49 Ice Warning 25.5F - 32F 5 0% - 100% 0 mhos 2 Yes - - -
11/23/2014 00:41 Ice Warning 24.8F - 32F 5 0% - 100% 0 mhos 1 None None - -
11/23/2014 00:39 Ice Warning 24.4F - 32F 5 0% - 100% 0 mhos 1 None None - -
11/23/2014 00:31 Ice Warning 24.3F - 32F 5 0% - 100% 0 mhos 1 None None - -
11/23/2014 00:29 Ice Warning 24.1F - 32F 5 0% - 100% 0 mhos 1 None None - -
11/23/2014 00:19 Ice Warning 24.4F - 32F 5 0% - 100% 0 mhos 1 None None - -
11/23/2014 00:11 Ice Warning 24.4F - 32F 5 0% - 100% 0 mhos 2 None None - -
11/23/2014 00:09 Ice Warning 24.6F - 32F 5 0% - 100% 0 mhos 2 None None - -
11/22/2014 23:59 Ice Warning 24.3F - 32F 5 0% - 100% 0 mhos 2 None None - -
11/22/2014 23:49 Ice Warning 24.6F - 32F 5 0% - 100% 0 mhos 2 None None - -
11/22/2014 23:41 Ice Warning 25.0F - 32F 5 0% - 100% 0 mhos 2 None None - -
11/22/2014 23:39 Ice Warning 25.3F - 32F 5 0% - 100% 0 mhos 2 None None - -
Date/Time
(MST)
Sf
Temp Chem Water Layer Surface Precipitation
Sf Sub Frz Factor Pct Depth IcePct Cond Salin Type Intens Accum Rate
11/22/2014 23:31 Ice Warning 26.2F - 32F 5 0% - 100% 0 mhos 2 None None - -
11/22/2014 23:29 Ice Warning 25.9F - 32F 5 0% - 100% 0 mhos 3 None None - -
11/22/2014 23:19 Ice Warning 26.8F - 32F 5 0% - 100% 0 mhos 3 None None - -
11/22/2014 23:09 Ice Warning 26.8F - 32F 10 0% - 100% 0 mhos 3 None None - -
11/22/2014 23:01 Ice Warning 27.0F - 32F 5 0% - 100% 0 mhos 2 None None - -
11/22/2014 22:59 Ice Warning 26.8F - 32F 5 0% - 100% 0 mhos 2 None None - -
11/22/2014 22:49 Ice Warning 26.4F - 32F 5 0% - 100% 0 mhos 2 None None - -
11/22/2014 22:38 Dry 26.2F - - - - - - 0 mhos 1 None None - -
11/22/2014 22:31 Dry 26.1F - - - - - - 0 mhos 1 None None - -
11/22/2014 22:28 Dry 26.1F - - - - - - 0 mhos 0 None None - -
11/22/2014 22:18 Dry 25.3F - - - - - - 0 mhos 0 None None - -
11/22/2014 22:08 Dry 25.3F - - - - - - 0 mhos 0 None None - -
Change End Date:
Copyright © 1998-2005 Surface Systems, Inc.
All Rights Reserved
Send comments about the data to:
SCAN Web ® is a registered trademark of Surface Systems, Inc.
SCAN Web Version 5.6